Brevnov, Czech Republic

7:32 PM CET on November 23, 2017 (GMT +0100)
Brevnov

Weather History for 11518 - December, 2013

Change the Weather History Date:

Thursday, December 12, 2013

  Actual Average Record
Temperature  
Mean Temperature 32 °F -  
Max Temperature 34 °F 34 °F - ()
Min Temperature 30 °F 24 °F - ()
Degree Days  
Heating Degree Days 33    
Moisture  
Dew Point 34 °F    
Average Humidity 98    
Maximum Humidity 100    
Minimum Humidity 93    
Precipitation  
Precipitation 0.00 in 0.03 in - ()
Sea Level Pressure  
Sea Level Pressure 30.46 in    
Wind  
Wind Speed 3 mph ()    
Max Wind Speed 7 mph    
Max Gust Speed -    
Visibility 0.3 miles    
Events Fog , Rain    
T = Trace of Precipitation, MM = Missing Value Source: Averaged Metar Reports

Daily Weather History Graph

Daily Weather History Graph

Search for Another Location

Airport or City:

Trip Planner

Search our weather history database for the weather conditions in past years. The results will help you decide how hot, cold, wet, or windy it might be!

Date:

Astronomy

Dec. 12, 2013 Rise Set
Actual Time 7:52 AM CET 4:00 PM CET
Civil Twilight 7:14 AM CET 4:39 PM CET
Nautical Twilight 6:32 AM CET 5:20 PM CET
Astronomical Twilight 5:53 AM CET 5:59 PM CET
Moon 1:18 PM CET (12/12) 2:34 AM CET (12/12)
Length of Visible Light 9h 24m
Length of Day
8h 07m
Waxing Gibbous, 78% of the Moon is Illuminated
Dec 12
Waxing Gibbous
Dec 17
Full
Dec 25
Last Quarter
Jan 1
New
Jan 8
First Quarter

Hourly Weather History & Observations

Time (CET) Temp. Windchill Dew Point Humidity Pressure Visibility Wind Dir Wind Speed Gust Speed Precip Events Conditions
12:00 AM 37.4 °F 34.9 °F 35.6 °F 93% 30.54 in 0.7 mi South 3.5 mph - N/A Fog Patches of Fog
12:30 AM 37.4 °F - 35.6 °F 93% 30.54 in 0.6 mi Variable 2.3 mph - N/A Fog Patches of Fog
12:52 AM 37.4 °F - 35.6 °F 93% 30.51 in 0.4 mi WSW 2.3 mph - N/A Fog Fog
1:00 AM 37 °F - 36 °F 94% 30.58 in 0 mi West 2.2 mph - - Fog Heavy Fog
1:00 AM 37.4 °F - 35.6 °F 93% 30.51 in 0.4 mi SSW 2.3 mph - N/A Fog Fog
1:30 AM 37.4 °F - 35.6 °F 93% 30.51 in 0.5 mi South 2.3 mph - N/A Fog Fog
2:00 AM 37.4 °F 34.9 °F 35.6 °F 93% 30.54 in 0.5 mi South 3.5 mph - N/A Fog Fog
2:30 AM 37.4 °F 34.9 °F 35.6 °F 93% 30.51 in 0.4 mi SSW 3.5 mph - N/A Fog Fog
3:00 AM 37.4 °F 32.8 °F 35.6 °F 93% 30.51 in 0.4 mi South 5.8 mph - N/A Fog Fog
3:30 AM 35.6 °F 29.9 °F 35.6 °F 100% 30.48 in 0.4 mi SW 6.9 mph - N/A Fog Light Drizzle
4:00 AM 35.6 °F 32.8 °F 35.6 °F 100% 30.51 in 0.4 mi SW 3.5 mph - N/A Fog Light Drizzle
4:30 AM 35.6 °F - 35.6 °F 100% 30.51 in 0.3 mi Variable 1.2 mph - N/A Fog Light Drizzle
5:00 AM 35.6 °F - 35.6 °F 100% 30.48 in 0.4 mi West 2.3 mph - N/A Fog Light Drizzle
5:30 AM 35.6 °F 32.8 °F 35.6 °F 100% 30.48 in 0.4 mi South 3.5 mph - N/A Fog Light Drizzle
6:00 AM 35.6 °F 32.8 °F 35.6 °F 100% 30.48 in 0.4 mi South 3.5 mph - N/A Fog Fog
6:30 AM 35.6 °F 32.8 °F 33.8 °F 93% 30.48 in 0.5 mi SSE 3.5 mph - N/A Fog Fog
7:00 AM 35 °F - 34 °F 94% 30.55 in 0 mi South 4.5 mph - - Fog Heavy Fog
7:00 AM 33.8 °F 30.8 °F 33.8 °F 100% 30.48 in 0.4 mi SW 3.5 mph - N/A Fog Fog
7:30 AM 33.8 °F - 33.8 °F 100% 30.48 in 0.3 mi Variable 2.3 mph - N/A Fog Fog
7:33 AM 33.8 °F - 33.8 °F 100% 30.48 in 0.2 mi Variable 2.3 mph - N/A Fog Light Drizzle
7:51 AM 33.8 °F - 33.8 °F 100% 30.48 in 0.2 mi Variable 2.3 mph - N/A Fog Light Drizzle
8:00 AM 33.8 °F 30.8 °F 33.8 °F 100% 30.48 in 0.2 mi SE 3.5 mph - N/A Fog Light Drizzle
8:30 AM 33.8 °F 29.6 °F 33.8 °F 100% 30.48 in 0.2 mi South 4.6 mph - N/A Fog Light Drizzle
9:00 AM 33.8 °F - 33.8 °F 100% 30.48 in 0.2 mi Variable 2.3 mph - N/A Fog Light Drizzle
9:30 AM 33.8 °F 30.8 °F 33.8 °F 100% 30.48 in 0.2 mi SW 3.5 mph - N/A Fog Fog
10:00 AM 33.8 °F 30.8 °F 33.8 °F 100% 30.48 in 0.2 mi WSW 3.5 mph - N/A Fog Fog
10:30 AM 33.8 °F 30.8 °F 33.8 °F 100% 30.48 in 0.2 mi South 3.5 mph - N/A Fog Fog
11:00 AM 33.8 °F - 33.8 °F 100% 30.48 in 0.2 mi Variable 2.3 mph - N/A Fog Light Drizzle
11:30 AM 33.8 °F - 33.8 °F 100% 30.48 in 0.2 mi Variable 2.3 mph - N/A Fog Light Drizzle
12:00 PM 33.8 °F - 33.8 °F 100% 30.45 in 0.2 mi Variable 2.3 mph - N/A Fog Light Drizzle
12:30 PM 33.8 °F - 33.8 °F 100% 30.45 in 0.2 mi Variable 2.3 mph - N/A Fog Light Drizzle
12:49 PM 33.8 °F 29.6 °F 33.8 °F 100% 30.45 in 0.2 mi SSE 4.6 mph - N/A Fog Light Drizzle
1:00 PM 34 °F - 34 °F 99% 30.52 in 0 mi SSW 2.2 mph - - Rain Light Drizzle
1:00 PM 33.8 °F - 33.8 °F 100% 30.45 in 0.2 mi Variable 2.3 mph - N/A Fog Light Drizzle
1:17 PM 33.8 °F - 33.8 °F 100% 30.45 in 0.2 mi Variable 1.2 mph - N/A Fog Fog
1:30 PM 33.8 °F - 33.8 °F 100% 30.45 in 0.2 mi Variable 2.3 mph - N/A Fog Fog
1:37 PM 33.8 °F 30.8 °F 33.8 °F 100% 30.45 in 0.2 mi Variable 3.5 mph - N/A Fog Fog
1:40 PM 33.8 °F 30.8 °F 33.8 °F 100% 30.45 in 0.2 mi Variable 3.5 mph - N/A Fog Patches of Fog
1:42 PM 33.8 °F 30.8 °F 33.8 °F 100% 30.45 in 0.2 mi Variable 3.5 mph - N/A Fog Patches of Fog
2:00 PM 33.8 °F 30.8 °F 33.8 °F 100% 30.45 in 0.2 mi Variable 3.5 mph - N/A Fog Patches of Fog
2:30 PM 33.8 °F - 33.8 °F 100% 30.42 in 0.2 mi Variable 2.3 mph - N/A Fog Fog
2:38 PM 33.8 °F 30.8 °F 33.8 °F 100% 30.42 in 0.2 mi Variable 3.5 mph - N/A Fog Fog
2:46 PM 33.8 °F 30.8 °F 33.8 °F 100% 30.42 in 0.2 mi SE 3.5 mph - N/A Fog Light Drizzle
3:00 PM 33.8 °F 30.8 °F 33.8 °F 100% 30.42 in 0.2 mi SE 3.5 mph - N/A Fog Light Drizzle
3:30 PM 33.8 °F 30.8 °F 33.8 °F 100% 30.42 in 0.2 mi Variable 3.5 mph - N/A Fog Light Drizzle
4:00 PM 33.8 °F - 32.0 °F 93% 30.42 in 0.2 mi Variable 2.3 mph - N/A Fog Light Drizzle
4:30 PM 33.8 °F - 33.8 °F 100% 30.42 in 0.3 mi Variable 1.2 mph - N/A Fog Light Drizzle
4:34 PM 33.8 °F - 33.8 °F 100% 30.42 in 0.3 mi Variable 1.2 mph - N/A Fog Light Drizzle
5:00 PM 33.8 °F - 32.0 °F 93% 30.42 in 0.4 mi Variable 2.3 mph - N/A Fog Light Drizzle
5:30 PM 32.0 °F 28.7 °F 32.0 °F 100% 30.42 in 0.4 mi South 3.5 mph - N/A Fog Light Drizzle
6:00 PM 32.0 °F 28.7 °F 32.0 °F 100% 30.42 in 0.4 mi ESE 3.5 mph - N/A Fog Light Drizzle
6:30 PM 32.0 °F 28.7 °F 32.0 °F 100% 30.39 in 0.4 mi SSE 3.5 mph - N/A Fog Light Drizzle
7:00 PM 32 °F - 32 °F 98% 30.47 in 0 mi South 2.2 mph - - Rain Light Drizzle
7:00 PM 32.0 °F 28.7 °F 32.0 °F 100% 30.39 in 0.4 mi South 3.5 mph - N/A Fog Light Drizzle
7:30 PM 32.0 °F - 30.2 °F 93% 30.39 in 0.4 mi Variable 2.3 mph - N/A Fog Light Freezing Fog
8:00 PM 32.0 °F - 32.0 °F 100% 30.39 in 0.4 mi Variable 2.3 mph - N/A Fog Fog
8:30 PM 32.0 °F - 32.0 °F 100% 30.39 in 0.4 mi Variable 2.3 mph - N/A Fog Fog
9:00 PM 32.0 °F - 30.2 °F 93% 30.39 in 0.4 mi Variable 2.3 mph - N/A Fog Fog
9:30 PM 30.2 °F - 30.2 °F 100% 30.39 in 0.4 mi Variable 2.3 mph - N/A Fog Fog
10:00 PM 30.2 °F 24.3 °F 30.2 °F 100% 30.39 in 0.3 mi SSW 5.8 mph - N/A Fog Fog
10:30 PM 30.2 °F - 30.2 °F 100% 30.39 in 0.4 mi Variable 2.3 mph - N/A Fog Light Freezing Rain
10:34 PM 30.2 °F - 30.2 °F 100% 30.39 in 0.4 mi Variable 2.3 mph - N/A Fog Light Freezing Drizzle
11:00 PM 30.2 °F 26.7 °F 30.2 °F 100% 30.39 in 0.4 mi WSW 3.5 mph - N/A Fog Light Freezing Fog
11:30 PM 32.0 °F 27.5 °F 30.2 °F 93% 30.36 in 0.4 mi SW 4.6 mph - N/A Fog Light Freezing Drizzle